Flag for Algeria Weather past 2 weeks in Oran, Algeria

Now
73 °F

Sunny.


Feels Like: 77 °F
Forecast: 55 / 69 °F
Wind: 17 mph from North

Location: Oran / Es Senia

Current Time: Apr 1, 2015 at 3:27:40 PM

Latest Report: Apr 1, 2015 at 2:30 PM


Visibility: 10 mi

Pressure: 30.18 "Hg

Humidity: 53%

Dew point: 55 °F

Location of OranLocation

Historic Weather in Oran — Graph

°F

Oran temperature yesterday

Maximum temperature yesterday: 81 °F (at 1:00 PM)
Minimum temperature yesterday: 52 °F (at 5:00 AM)
Average temperature yesterday: 67 °F

Past Weeks' High & Low Weather Summary

 TemperatureHumidityPressure
High82 °F (Mar 29, 4:00 PM)100% (Mar 22, 7:00 AM)30.30 "Hg (Mar 22, 7:00 AM)
Low43 °F (Mar 21, 6:00 AM)30% (Mar 29, 4:00 PM)29.59 "Hg (Mar 20, 4:00 AM)
Average59 °F73%29.95 "Hg
* Reported Mar 17 2:00 PM — Apr 1 2:30 PM, Oran, Weather by CustomWeather, © 2015

Note: Actual official high and low records may vary slightly from our data, if they occured in-between our weather recording intervals... More about our weather records

Advertising

Oran weather history for previous 24 hours

 ConditionsComfort  
Time TempWeatherWind HumidityBarometerVisibility
2:30 PM
Wed, Apr 1
73 °FSunny.17 mph53%30.18 "Hg10 mi
2:00 PM79 °FSunny.12 mph39%30.18 "Hg10 mi
1:30 PM79 °FSunny.9 mph45%30.21 "Hg10 mi
1:00 PM79 °FSunny.9 mph45%30.21 "Hg10 mi
12:30 PM79 °FSunny.8 mph42%30.24 "Hg10 mi
12:00 PM77 °FSunny.3 mph51%30.24 "Hg10 mi
11:30 AM77 °FSunny.5 mph47%30.24 "Hg10 mi
11:00 AM73 °FSunny.3 mph53%30.24 "Hg10 mi
10:30 AM73 °FSunny.5 mph53%30.27 "Hg10 mi
10:00 AM70 °FSunny.6 mph60%30.24 "Hg10 mi
9:30 AM68 °FSunny.3 mph64%30.24 "Hg10 mi
9:00 AM63 °FScattered clouds.No wind77%30.24 "HgN/A
8:30 AM63 °FSunny.2 mph77%30.24 "Hg10 mi
8:00 AM57 °FSunny.No wind88%30.21 "Hg10 mi
7:30 AM55 °FSunny.No wind88%30.21 "Hg10 mi
7:00 AM54 °FSunny.No wind94%30.21 "Hg10 mi
6:30 AM54 °FClear.No wind88%30.18 "Hg10 mi
6:00 AM54 °FClear.No wind88%30.18 "Hg10 mi
5:00 AM54 °FClear.No wind88%30.18 "Hg10 mi
4:30 AM54 °FClear.2 mph88%30.18 "Hg10 mi
3:30 AM55 °FClear.3 mph88%30.21 "Hg10 mi
3:00 AM57 °FClear.No wind88%30.21 "Hg10 mi
2:30 AM57 °FClear.3 mph88%30.24 "Hg10 mi
2:00 AM57 °FClear.No wind88%30.24 "Hg10 mi
1:30 AM59 °FClear.No wind82%30.24 "Hg10 mi
1:00 AM61 °FClear.No wind83%30.24 "Hg10 mi
12:00 AM61 °FClear.2 mph77%30.24 "Hg10 mi
11:30 PM
Tue, Mar 31
61 °FClear.2 mph77%30.24 "Hg10 mi
11:00 PM63 °FClear.2 mph77%30.24 "Hg10 mi
10:30 PM63 °FClear.2 mph77%30.21 "Hg10 mi
10:00 PM64 °FClear.2 mph88%30.21 "Hg10 mi
9:30 PM68 °FClear.5 mph53%30.18 "Hg10 mi
9:00 PM70 °FClear.3 mph50%30.18 "Hg10 mi
8:30 PM68 °FClear.7 mph56%30.21 "Hg10 mi
8:00 PM70 °FClear.7 mph53%30.18 "Hg10 mi
7:30 PM72 °FClear.5 mph53%30.18 "Hg10 mi
7:00 PM75 °FSunny.5 mph47%30.18 "Hg10 mi
6:30 PM79 °FSunny.5 mph42%30.18 "Hg10 mi
6:00 PM79 °FSunny.2 mph42%30.18 "Hg10 mi
5:30 PM77 °FSunny.2 mph42%30.18 "Hg10 mi
5:00 PM77 °FSunny.7 mph42%30.18 "Hg10 mi
4:30 PM79 °FSunny.9 mph42%30.21 "Hg10 mi
4:00 PM79 °FSunny.9 mph42%30.21 "Hg10 mi
3:30 PM79 °FSunny.9 mph42%30.24 "Hg10 mi
3:00 PM81 °FSunny.9 mph39%30.24 "Hg10 mi
Weather by CustomWeather, © 2015

See weather overviewHow to use our weather pages